Regional Weather Roundup
Issued by NWS

Home | Current Version | Previous Version | Graphics & Text | Print | Product List | Glossary On
Versions: 1 2 3 4 5 6 7 8 9 10 11 12 13 14 15 16 17 18 19 20 21 22 23 24 25 26 27 28 29 30 31 32 33 34 35 36 37 38 39 40 41 42 43 44 45 46 47 48 49
000
ASUS45 KBOU 211207
RWRCO

WEATHER ROUNDUP FOR COLORADO
NATIONAL WEATHER SERVICE DENVER/BOULDER CO
600 AM MDT THU AUG 21 2014

NOTE: "FAIR" INDICATES FEW OR NO CLOUDS BELOW 12000 FEET WITH NO
SIGNIFICANT WEATHER AND/OR OBSTRUCTIONS TO VISIBILITY.

COZ001>005-013-030-031-211300-
...NORTHWEST COLORADO...

CITY           SKY/WX    TMP DP  RH WIND       PRES   REMARKS
CRAIG          MOCLDY    53  51  93 E5        30.20S
HAYDEN         MOCLDY    52  46  82 E6        30.22S
MEEKER         PTCLDY    52  49  89 E6        30.20S
MOUNT WERNER   NOT AVBL
STEAMBOAT SPGS CLOUDY    49  47  93 E7        30.24F
WALDEN         PTCLDY    43  41  93 S6        30.27S
$$

COZ006>008-011-211300-
...WEST CENTRAL VALLEYS...

CITY           SKY/WX    TMP DP  RH WIND       PRES   REMARKS
GRAND JUNCTION PTCLDY    55  49  80 E7        30.13R
MONTROSE       CLEAR     54  46  74 SE7       30.20S
EAGLE          CLOUDY    50  48  93 CALM      30.27R
RIFLE          CLEAR     54  47  77 E5        30.18R
DELTA          CLEAR     58  46  63 E6        30.17R
NUCLA          CLEAR     52  45  76 CALM      30.23S
$$

COZ017>023-064>068-211300-
...SOUTHWEST COLORADO...

CITY           SKY/WX    TMP DP  RH WIND       PRES   REMARKS
DURANGO        CLEAR     46  39  76 E5        30.21S
CORTEZ         CLEAR     49  44  83 CALM      30.20R
PAGOSA SPRINGS   N/A     45  40  82 CALM      30.28S
TELLURIDE      CLEAR     46  39  76 SE5       30.37F
WOLF CREEK PAS NOT AVBL
$$

COZ009-010-012-014-032>034-037-058>063-211300-
...CENTRAL COLORADO...

CITY           SKY/WX    TMP DP  RH WIND       PRES   REMARKS
ASPEN          CLEAR     45  41  86 S7        30.29R
BUENA VISTA    CLEAR     51  39  65 W13       30.28R
COPPER MTN     PTCLDY    43  37  81 W13       30.51S
BERTHOUD PASS  FOG       34  32  93 NW18G26   30.52S VSB 1/2 WCI  23
COTTONWOOD PAS CLEAR     54  36  50 W17G25    30.37S
GUNNISON       CLEAR     43  36  75 CALM      30.33S
KREMMLING      MOCLDY    50  45  81 CALM      30.29R
LEADVILLE      CLEAR     37  35  92 N5        30.38R
SALIDA         CLEAR     60  39  45 W9        30.32R
SUNLIGHT       CLEAR     43  39  87 CALM      30.46S
WILKERSON PASS CLEAR     45  32  61 SW6       30.49R
$$

COZ069>075-211300-
...SAN LUIS VALLEY/SANGRE DE CRISTO MOUNTAINS...

CITY           SKY/WX    TMP DP  RH WIND       PRES   REMARKS
ALAMOSA        CLEAR     45  40  82 CALM      30.27R
LA VETA PASS   NOT AVBL
SAGUACHE       CLEAR     52  41  66 NW12      30.29S
$$

COZ035-036-038>040-211300-
...NORTHERN COLORADO FRONT RANGE...

CITY           SKY/WX    TMP DP  RH WIND       PRES   REMARKS
DENVER INTL AP PTCLDY    60  53  77 SW9       30.07R
DMNS CITY PARK   N/A     60  54  80 S3        30.07R
AURORA         PTCLDY    58  52  82 S9        30.10R
FRONT RANGE AP NOT AVBL
ERIE MUNI ARPT CLEAR     58  53  85 CALM      30.05R
BOULDER MUN AP CLEAR     59  50  72 N7        30.06R
CENTENNIAL     PTCLDY    57  50  77 E6        30.10R
BROOMFIELD     CLEAR     57  50  77 W7        30.09R
FORT COLLINS   CLEAR     61  54  77 NE5       30.06R
LONGMONT       CLEAR     56  51  85 NW5       30.07R
$$

COZ041-046-047-076>085-087-088-211300-
...PIKES PEAK/PALMER DIVIDE AND SOUTHERN FOOTHILLS...

CITY           SKY/WX    TMP DP  RH WIND       PRES   REMARKS
COLO. SPRINGS  PTCLDY    59  48  67 W6        30.14R
A. F. ACADEMY  PTCLDY    55  48  78 N8        30.16R
ELLICOTT       PTCLDY    55  51  86 N8        30.12R
FALCON         MOCLDY    60  47  62 N7        30.18R
FORT CARSON    PTCLDY    60  49  68 NW10      30.11R
LIMON          CLEAR     56  54  93 W6        30.06R
MONUMENT HILL  PTCLDY    50  46  87 S6        30.17S
TRINIDAD       CLEAR     58  48  69 W9        30.12R
$$

COZ042>045-048>051-090-091-211300-
...NORTHEAST COLORADO...

CITY           SKY/WX    TMP DP  RH WIND       PRES   REMARKS
GREELEY ARPT   CLEAR     55  46  71 NW3       30.04R
AKRON          MOCLDY    63  57  81 NW13      30.01R
BURLINGTON     PTCLDY    62  55  77 NW7       29.95R
WRAY             N/A     64  59  82 NW7       29.93R
STERLING       PTCLDY    64  61  88 CALM      29.98R
HOLYOKE        NOT AVBL
FORT MORGAN    PTCLDY    63  54  72 N6        30.02R
$$

COZ086-089-092>099-211300-
...SOUTHEAST COLORADO...

CITY           SKY/WX    TMP DP  RH WIND       PRES   REMARKS
PUEBLO         CLEAR     64  52  64 W7        30.03R
LA JUNTA       CLEAR     64  56  75 W8        30.00R
LAMAR          CLEAR     63  55  75 CALM      29.93R
SPRINGFIELD      N/A     63  53  70 W9        29.97R
$$



USA.gov is the U.S. government's official web portal to all federal, state and local government web resources and services.